Regional Weather Roundup
Issued by NWS

Home | Current Version | Previous Version | Graphics & Text | Print | Product List | Glossary On
Versions: 1 2 3 4 5 6 7 8 9 10 11 12 13 14 15 16 17 18 19 20 21 22 23 24 25 26 27 28 29 30 31 32 33 34 35 36 37 38 39 40 41 42 43 44 45 46 47 48 49 50
000
ASUS43 KLMK 251910
RWRKY
KENTUCKY REGIONAL WEATHER ROUNDUP
NATIONAL WEATHER SERVICE LOUISVILLE KY
200 PM EST SUN FEB 25 2018

NOTE "FAIR" INDICATES FEW OR NO CLOUDS BELOW 12,000 FEET
WITH NO SIGNIFICANT WEATHER AND/OR OBSTRUCTIONS TO VISIBILITY.

KYZ001>023-026-027-061>063-070>075-252000-
WESTERN AND SOUTH CENTRAL KENTUCKY

CITY           SKY/WX    TMP DP  RH WIND       PRES   REMARKS
PADUCAH        FAIR      51  34  52 W6        30.10F
HENDERSON      FAIR      48  38  68 SW8       30.11F
OWENSBORO      FAIR      48  35  60 VRB3      30.11F
HOPKINSVILLE   FAIR      51  39  63 CALM      30.08F
BOWLING GREEN  FAIR      53  40  61 VRB5      30.09F
GLASGOW        FAIR      51  38  63 W5        30.09F
$$

KYZ024-025-028>034-038-045-046-053-252000-
NORTH CENTRAL KENTUCKY

CITY           SKY/WX    TMP DP  RH WIND       PRES   REMARKS
LOUISVILLE/SDF PTSUNNY   50  33  52 W8        30.09F
LOUISVILLE/LOU FAIR      48  32  53 W7        30.09F
FORT KNOX      FAIR      48  38  67 SW9       30.09F
$$

KYZ035>037-039>044-047>052-055>060-089>105-252000-
NORTHEAST KENTUCKY

CITY           SKY/WX    TMP DP  RH WIND       PRES   REMARKS
LEXINGTON      FAIR      49  39  68 W12       30.08S
COVINGTON      CLOUDY    47  37  68 SW10      30.04S
FRANKFORT      FAIR      49  34  56 SW8       30.07S
$$

KYZ054-064>069-076>088-106>120-252000-
SOUTHEAST KENTUCKY

CITY           SKY/WX    TMP DP  RH WIND       PRES   REMARKS
JACKSON        FAIR      54  44  69 VRB5      30.04F
LONDON         FAIR      53  43  68 W8        30.08R
SOMERSET       FAIR      50  37  62 W6        30.10S
MIDDLESBORO    PTSUNNY   57  47  69 SW3       30.07F
MONTICELLO     FAIR      50  41  71 W6        30.11F
$$




USA.gov is the U.S. government's official web portal to all federal, state and local government web resources and services.